Tracking 31027 objects as of 19-Jul-2025
HD Live streaming from Space Station
objects crossing your sky now

SL-8 DEB

Track SL-8 DEB now!
10-day predictions


NORAD ID: 21181
Int'l Code: 1991-009AU
Perigee: 1,423.1 km
Apogee: 1,753.3 km
Inclination: 73.9 °
Period: 117.8 minutes
Semi major axis: 7959 km
RCS: 0.0238 m2 (small)
Launch date: February 12, 1991
Source: Commonwealth of Independent States (former USSR) (CIS)
Launch site: PLESETSK MISSILE AND SPACE COMPLEX (PKMTR)

Note: This is SATELLITE DEBRIS
Your satellite tracking list
FENGYUN 1C DEB
Track 1 satellite(s)




NASA's NSSDC Master Catalog

Two Line Element Set (TLE):
1 21181U 91009AU  25198.71580795  .00000064  00000-0  67859-3 0  9997
2 21181  73.9471  89.3577 0207449  73.0064 319.5374 12.22633832533242
Source of the keplerian elements: AFSPC